• In Austria
  • List of Countries
  • For 7 days
  • Water Temperature
  • Satellite Maps
  • Weather Map
  • News
  • Weather Widgets
  • user-avatar
    Login

    Hourly Weather Solden

    Today, 14 December, Thursday

    Time Temperature Precipitation Wind Pressure Humidity
    00:00 -14°C° 0 mm 3 mps 571 mmHg 81%
    01:00 -12°C° 0 mm 4 mps 571 mmHg 77%
    02:00 -12°C° 0 mm 4 mps 571 mmHg 78%
    03:00 -12°C° 0 mm 3 mps 571 mmHg 79%
    04:00 -12°C° 0 mm 3 mps 570 mmHg 80%
    05:00 -12°C° 0 mm 3 mps 570 mmHg 81%
    06:00 -10°C° 0 mm 2 mps 570 mmHg 82%
    07:00 -12°C° 0 mm 2 mps 570 mmHg 82%
    08:00 -10°C° 0.1 mm 2 mps 570 mmHg 82%
    09:00 -9°C° 0.1 mm 2 mps 571 mmHg 83%
    10:00 -7°C° 0.1 mm 2 mps 572 mmHg 83%
    11:00 -7°C° 0.2 mm 2 mps 572 mmHg 83%
    12:00 -6°C° 0.2 mm 2 mps 572 mmHg 84%
    13:00 -5°C° 0.2 mm 2 mps 572 mmHg 85%
    14:00 -6°C° 0.5 mm 2 mps 571 mmHg 87%
    15:00 -6°C° 0.5 mm 2 mps 571 mmHg 89%
    16:00 -6°C° 0.5 mm 1 mps 570 mmHg 92%
    17:00 -6°C° 0.4 mm 1 mps 570 mmHg 92%
    18:00 -8°C° 0.4 mm 2 mps 569 mmHg 92%
    19:00 -8°C° 0.4 mm 2 mps 569 mmHg 92%
    20:00 -9°C° 0.1 mm 2 mps 568 mmHg 91%
    21:00 -10°C° 0.1 mm 3 mps 568 mmHg 90%
    22:00 -10°C° 0.1 mm 3 mps 567 mmHg 89%
    23:00 -10°C° 0.1 mm 3 mps 567 mmHg 90%

    Tomorrow, 15 December, Friday

    Time Temperature Precipitation Wind Pressure Humidity
    00:00 -10°C° 0.1 mm 3 mps 567 mmHg 90%
    01:00 -10°C° 0.1 mm 3 mps 567 mmHg 91%
    02:00 -10°C° 0.3 mm 3 mps 566 mmHg 91%
    03:00 -10°C° 0.3 mm 3 mps 566 mmHg 91%
    04:00 -10°C° 0.3 mm 3 mps 566 mmHg 92%
    05:00 -8°C° 0.6 mm 2 mps 566 mmHg 92%
    06:00 -8°C° 0.6 mm 2 mps 567 mmHg 93%
    07:00 -7°C° 0.6 mm 1 mps 567 mmHg 93%
    08:00 -7°C° 0.3 mm 1 mps 568 mmHg 91%
    09:00 -7°C° 0.3 mm 1 mps 568 mmHg 90%
    10:00 -6°C° 0.3 mm 1 mps 568 mmHg 88%
    11:00 -6°C° 0.1 mm 1 mps 568 mmHg 84%
    12:00 -4°C° 0.1 mm 1 mps 568 mmHg 81%
    13:00 -4°C° 0.1 mm 1 mps 568 mmHg 77%
    14:00 -6°C° 0.1 mm 1 mps 568 mmHg 79%
    15:00 -8°C° 0.1 mm 1 mps 567 mmHg 82%
    16:00 -9°C° 0.1 mm 1 mps 567 mmHg 84%
    17:00 -10°C° 0 mm 1 mps 566 mmHg 84%
    18:00 -11°C° 0 mm 1 mps 566 mmHg 83%
    19:00 -12°C° 0 mm 1 mps 566 mmHg 82%
    20:00 -15°C° 0 mm 2 mps 565 mmHg 80%
    21:00 -15°C° 0 mm 2 mps 565 mmHg 77%
    22:00 -16°C° 0 mm 2 mps 565 mmHg 74%
    23:00 -16°C° 0 mm 2 mps 565 mmHg 72%

    Day after tomorrow, 16 December, Saturday

    Time Temperature Precipitation Wind Pressure Humidity
    00:00 -16°C° 0 mm 2 mps 565 mmHg 70%
    01:00 -16°C° 0 mm 2 mps 565 mmHg 68%
    02:00 -16°C° 0 mm 2 mps 566 mmHg 69%
    03:00 -16°C° 0 mm 2 mps 566 mmHg 70%
    04:00 -16°C° 0 mm 2 mps 566 mmHg 71%
    05:00 -16°C° 0 mm 2 mps 567 mmHg 73%
    06:00 -16°C° 0 mm 2 mps 567 mmHg 75%
    07:00 -16°C° 0 mm 2 mps 567 mmHg 77%
    08:00 -15°C° 0 mm 2 mps 569 mmHg 77%
    09:00 -13°C° 0 mm 2 mps 570 mmHg 77%
    10:00 -12°C° 0 mm 2 mps 571 mmHg 76%
    11:00 -10°C° 0 mm 2 mps 571 mmHg 74%
    12:00 -9°C° 0 mm 2 mps 572 mmHg 72%
    13:00 -8°C° 0 mm 2 mps 572 mmHg 71%
    14:00 -9°C° 0.1 mm 2 mps 572 mmHg 74%
    15:00 -10°C° 0.1 mm 2 mps 572 mmHg 78%
    16:00 -12°C° 0.1 mm 2 mps 572 mmHg 82%
    17:00 -13°C° 0.1 mm 2 mps 572 mmHg 82%
    18:00 -13°C° 0.1 mm 2 mps 572 mmHg 83%
    19:00 -14°C° 0.1 mm 2 mps 573 mmHg 84%
    20:00 -14°C° 0.1 mm 2 mps 573 mmHg 84%
    21:00 -14°C° 0.1 mm 2 mps 573 mmHg 83%
    22:00 -15°C° 0.1 mm 2 mps 574 mmHg 83%
    23:00 -15°C° 0.1 mm 2 mps 574 mmHg 83%

    17 December, Sunday

    Time Temperature Precipitation Wind Pressure Humidity
    00:00 -15°C° 0.1 mm 2 mps 574 mmHg 83%
    01:00 -15°C° 0.1 mm 2 mps 575 mmHg 83%
    02:00 -15°C° 0.1 mm 2 mps 575 mmHg 84%
    03:00 -15°C° 0.1 mm 2 mps 575 mmHg 84%
    04:00 -15°C° 0.1 mm 2 mps 575 mmHg 84%
    05:00 -15°C° 0.1 mm 2 mps 575 mmHg 84%
    06:00 -16°C° 0.1 mm 2 mps 576 mmHg 84%
    07:00 -16°C° 0.1 mm 2 mps 576 mmHg 84%
    08:00 -15°C° 0.1 mm 2 mps 577 mmHg 82%
    09:00 -14°C° 0.1 mm 2 mps 578 mmHg 80%
    10:00 -13°C° 0.1 mm 2 mps 579 mmHg 78%
    11:00 -13°C° 0.1 mm 2 mps 579 mmHg 75%
    12:00 -12°C° 0.1 mm 2 mps 579 mmHg 72%
    13:00 -12°C° 0.1 mm 2 mps 580 mmHg 69%
    14:00 -12°C° 0.1 mm 2 mps 580 mmHg 72%
    15:00 -13°C° 0.1 mm 2 mps 580 mmHg 76%
    16:00 -14°C° 0.1 mm 2 mps 579 mmHg 79%
    17:00 -15°C° 0.1 mm 2 mps 579 mmHg 80%
    18:00 -16°C° 0.1 mm 2 mps 580 mmHg 81%
    19:00 -16°C° 0.1 mm 2 mps 580 mmHg 83%
    20:00 -17°C° 0 mm 2 mps 580 mmHg 83%
    21:00 -17°C° 0 mm 2 mps 580 mmHg 83%
    22:00 -18°C° 0 mm 2 mps 580 mmHg 83%
    23:00 -18°C° 0 mm 2 mps 580 mmHg 82%

    18 December, Monday

    Time Temperature Precipitation Wind Pressure Humidity
    00:00 -18°C° 0 mm 2 mps 580 mmHg 82%
    01:00 -18°C° 0 mm 2 mps 580 mmHg 82%
    02:00 -18°C° 0 mm 2 mps 580 mmHg 81%
    03:00 -18°C° 0 mm 2 mps 580 mmHg 81%
    04:00 -18°C° 0 mm 2 mps 580 mmHg 80%
    05:00 -17°C° 0 mm 2 mps 580 mmHg 80%
    06:00 -17°C° 0 mm 2 mps 581 mmHg 80%
    07:00 -16°C° 0 mm 2 mps 581 mmHg 79%
    08:00 -14°C° 0.1 mm 2 mps 581 mmHg 78%
    09:00 -13°C° 0.1 mm 2 mps 582 mmHg 77%
    10:00 -12°C° 0.1 mm 2 mps 582 mmHg 76%
    11:00 -10°C° 0.4 mm 2 mps 582 mmHg 77%
    12:00 -8°C° 0.4 mm 2 mps 582 mmHg 78%
    13:00 -7°C° 0.4 mm 2 mps 581 mmHg 78%
    14:00 -8°C° 0.9 mm 2 mps 581 mmHg 81%
    15:00 -8°C° 0.9 mm 2 mps 581 mmHg 84%
    16:00 -8°C° 0.9 mm 2 mps 580 mmHg 87%
    17:00 -8°C° 1 mm 2 mps 580 mmHg 88%
    18:00 -8°C° 1 mm 2 mps 580 mmHg 90%
    19:00 -8°C° 1 mm 2 mps 580 mmHg 91%
    20:00 -9°C° 0.2 mm 2 mps 580 mmHg 90%
    21:00 -10°C° 0.2 mm 2 mps 580 mmHg 90%
    22:00 -10°C° 0.2 mm 2 mps 580 mmHg 90%
    23:00 -13°C° 0 mm 3 mps 580 mmHg 89%

    19 December, Tuesday

    Time Temperature Precipitation Wind Pressure Humidity
    00:00 -13°C° 0 mm 3 mps 580 mmHg 88%
    01:00 -14°C° 0 mm 3 mps 580 mmHg 86%
    02:00 -14°C° 0 mm 3 mps 580 mmHg 86%
    03:00 -15°C° 0 mm 3 mps 580 mmHg 85%
    04:00 -14°C° 0 mm 2 mps 581 mmHg 85%
    05:00 -14°C° 0 mm 2 mps 581 mmHg 85%
    06:00 -14°C° 0 mm 2 mps 581 mmHg 85%
    07:00 -14°C° 0 mm 2 mps 581 mmHg 84%
    08:00 -13°C° 0 mm 2 mps 582 mmHg 83%
    09:00 -12°C° 0 mm 2 mps 583 mmHg 82%
    10:00 -10°C° 0 mm 2 mps 584 mmHg 81%
    11:00 -9°C° 0 mm 2 mps 585 mmHg 79%
    12:00 -7°C° 0 mm 2 mps 585 mmHg 77%
    13:00 -6°C° 0 mm 2 mps 585 mmHg 75%
    14:00 -7°C° 0 mm 2 mps 585 mmHg 78%
    15:00 -8°C° 0 mm 2 mps 584 mmHg 81%
    16:00 -9°C° 0 mm 2 mps 584 mmHg 84%
    17:00 -10°C° 0 mm 2 mps 583 mmHg 84%
    18:00 -13°C° 0 mm 2 mps 583 mmHg 84%
    19:00 -14°C° 0 mm 2 mps 583 mmHg 84%
    20:00 -14°C° 0 mm 2 mps 583 mmHg 82%
    21:00 -14°C° 0 mm 2 mps 583 mmHg 79%
    22:00 -14°C° 0 mm 2 mps 583 mmHg 77%
    23:00 -13°C° 0 mm 2 mps 583 mmHg 78%
    Show more